Snowfall_Accumulation
0.0 0.0 0.0 0.0 0.0 0.0 0.0 0.0 0.0 0.0 0.0 0.0 0.0 0.0 0.0 0.0 0.0 0.0 0.0 0.0 5.0 12.9 4.2 1.1 2.6 4.9 3.5 3.1 3.4 1.7 1.1 0.9 1.7 7.8 7.7 5.8 7.7 4.6 3.4 2.9 2.9 2.1 5.7 7.2 8.8 17.3 18.9 3.4 0.8 1.9 8.2 3.8 1.9 1.5
0.0 0.0 0.0 0.0 0.0 0.0 0.0 0.0 0.0 0.0 0.0 0.0 0.0 0.0 0.0 0.0 0.0 0.0 0.7 0.0 0.0 11.4 7.5 0.4 2.4 1.6 1.7 1.1 3.8 1.3 1.0 1.5 3.3 7.6 8.5 6.9 3.6 3.6 5.2 8.7 2.4 5.6 8.6 8.7 10.1 13.4 13.1 8.0 9.8 8.4 6.3 3.9 2.9 2.4
0.0 0.0 0.0 0.0 0.0 0.0 0.0 0.0 0.0 0.0 0.0 0.0 0.0 0.0 0.0 0.0 0.0 0.0 0.1 0.7 2.6 7.6 8.9 5.6 3.2 1.8 1.4 1.3 2.6 6.6 3.0 5.0 6.0 7.8 11.5 7.9 9.5 4.8 4.6 6.1 6.4 3.8 6.0 8.1 6.9 7.6 6.3 6.5 2.3 2.5 2.5 3.7 2.0 0.6
0.0 0.0 0.0 0.0 0.0 0.0 0.0 0.0 0.0 0.0 0.0 0.0 0.0 0.0 0.0 0.0 0.0 0.0 0.2 0.0 0.8 1.4 7.6 5.9 1.9 2.2 1.8 0.9 1.3 1.6 1.4 1.3 3.3 4.8 14.7 12.9 12.7 2.1 3.5 7.4 4.0 6.0 4.6 8.8 10.1 6.1 6.3 5.2 2.4 3.5 1.6 0.1 0.0 0.0
0.0 0.0 0.0 0.0 0.0 0.0 0.0 0.0 0.0 0.0 0.0 0.0 0.0 0.0 0.0 0.0 0.0 0.0 0.0 2.2 2.8 6.6 12.3 5.6 2.5 1.9 0.7 1.2 1.9 1.9 4.0 5.6 8.1 15.3 19.4 20.5 11.0 9.5 8.6 7.6 15.4 13.8 14.5 14.0 14.7 12.3 11.9 9.9 7.5 5.1 2.9 2.9 2.3 1.9
0.0 0.0 0.0 0.0 0.0 0.0 0.0 0.0 0.0 0.0 0.0 0.0 0.0 0.0 0.0 0.0 0.0 0.3 1.7 0.4 0.1 1.6 10.7 9.1 2.9 1.0 0.3 0.6 0.5 1.4 2.4 4.9 9.3 15.0 16.1 16.1 14.1 14.3 22.0 19.2 18.3 14.8 13.3 14.5 17.6 15.1 15.6 13.8 10.2 9.0 8.4 7.0 6.7 4.1
0.0 0.0 0.0 0.0 0.0 0.0 0.0 0.0 0.0 0.0 0.0 0.0 0.0 0.0 0.0 0.0 0.1 1.1 2.7 1.5 0.3 2.2 7.3 9.0 5.0 0.3 0.0 1.6 1.0 0.9 1.1 8.5 11.4 17.4 17.3 14.5 13.0 7.8 20.8 22.3 16.2 14.0 15.1 16.7 13.7 9.4 11.9 10.7 16.6 13.4 12.1 13.4 9.7 9.3
0.0 0.0 0.0 0.0 0.0 0.0 0.0 0.0 0.0 0.0 0.0 0.0 0.0 0.4 0.1 0.0 0.1 2.0 3.0 0.9 0.6 1.7 2.8 14.5 4.6 0.5 0.0 1.5 8.1 2.1 4.6 8.5 9.2 13.7 12.1 11.5 8.9 7.8 28.0 23.1 16.1 11.6 7.7 6.9 10.1 10.5 15.2 13.0 9.8 9.8 8.7 8.2 7.4 8.6
0.0 0.0 0.0 0.0 0.0 0.0 0.0 0.0 0.0 0.0 0.0 0.1 0.0 0.0 0.0 0.0 0.5 0.0 0.0 0.0 1.5 0.4 15.7 10.0 8.0 5.8 0.0 0.5 4.4 7.7 4.6 9.6 5.7 9.8 11.7 3.5 9.7 23.4 27.2 18.5 13.2 12.2 11.1 12.7 8.1 7.5 6.4 6.6 7.0 5.8 5.5 5.2 4.9 5.9
0.0 0.0 0.0 0.0 0.0 0.0 0.0 0.0 0.0 0.1 0.0 0.0 0.0 0.0 3.7 0.1 0.0 0.0 0.4 2.8 6.4 5.6 5.7 13.3 1.8 5.6 0.6 1.3 7.6 9.4 11.5 11.1 14.3 9.7 3.3 10.7 25.1 25.1 19.8 15.4 12.6 10.1 9.7 7.1 5.1 3.6 1.9 2.4 3.2 3.1 3.4 3.7 4.3 4.8
0.0 0.0 0.0 0.0 0.0 0.0 0.0 0.1 0.0 0.0 0.0 0.0 3.3 3.4 0.0 0.0 0.0 0.7 10.2 13.3 9.0 14.4 6.3 4.4 1.5 5.2 1.3 12.5 14.5 14.6 22.9 14.7 16.1 11.2 6.7 13.0 22.5 21.2 12.2 8.9 6.9 6.2 4.6 3.6 3.2 4.0 2.7 2.7 2.8 1.4 1.0 0.9 0.9 1.5
0.0 0.0 0.0 0.0 0.0 0.1 0.0 0.0 0.0 0.0 0.0 0.0 0.0 0.0 0.0 5.0 12.2 15.3 12.0 6.7 11.8 11.9 5.5 4.4 1.9 1.6 2.7 4.1 17.7 16.7 22.5 16.5 19.4 4.5 10.9 14.3 20.9 11.2 6.1 4.8 3.2 1.3 0.6 0.1 0.2 0.2 0.1 0.1 0.2 0.3 0.3 0.3 0.0 0.0
0.0 0.0 0.0 0.0 0.0 0.0 0.0 0.0 0.0 0.0 0.0 0.0 4.3 23.8 18.8 17.3 22.4 15.8 8.2 10.1 10.8 4.2 4.3 5.3 4.9 1.8 2.4 3.0 15.7 15.4 22.5 20.2 2.9 9.1 11.5 16.3 8.8 4.3 3.6 1.6 0.3 0.0 0.1 0.0 0.0 0.0 0.0 0.1 0.1 0.2 0.1 0.1 0.0 0.0
0.0 0.0 0.0 0.0 0.0 0.0 0.0 0.0 0.0 0.0 0.0 10.3 47.9 51.0 22.3 15.6 5.7 10.8 9.4 7.8 4.2 5.3 5.0 5.4 6.6 8.5 6.1 14.0 12.8 19.5 8.2 12.2 14.8 8.1 13.5 10.9 6.5 3.4 1.2 0.4 0.4 0.7 1.5 1.4 0.8 0.4 0.4 0.3 0.5 0.1 0.1 0.2 0.1 0.1
0.0 0.0 0.0 0.0 0.0 0.0 0.0 0.0 0.0 0.0 2.6 49.7 37.5 26.6 11.0 4.9 2.4 3.2 1.3 0.9 2.2 3.2 4.9 5.0 8.5 6.8 9.6 15.0 11.0 8.4 14.0 8.6 7.8 11.7 11.2 6.2 3.6 1.4 1.1 1.3 1.2 1.5 2.6 3.7 3.9 3.7 3.4 3.0 2.2 1.6 0.8 0.6 0.4 0.1
0.0 0.0 0.0 0.0 0.0 0.0 0.0 0.0 0.0 0.0 32.2 44.7 32.1 11.2 1.5 1.3 0.3 0.5 1.5 1.7 1.3 3.8 3.0 5.4 10.1 14.6 11.1 11.3 13.1 9.2 8.3 10.5 11.5 10.3 8.2 5.4 3.7 2.3 1.9 1.3 1.0 0.7 0.8 0.7 0.4 0.5 0.8 0.6 1.0 1.7 1.0 1.1 1.3 1.3
0.0 0.5 0.0 0.0 0.0 0.0 0.0 0.0 16.5 59.5 63.9 49.3 17.7 1.8 1.6 1.4 2.4 1.4 0.9 1.3 0.9 3.2 6.5 8.9 19.1 13.0 9.2 15.3 11.4 8.0 13.9 12.4 8.2 3.4 2.4 3.7 4.6 4.0 3.3 2.6 2.1 1.3 1.3 0.9 0.6 0.5 0.5 0.4 0.1 0.7 0.4 0.1 0.2 1.4
1.0 0.0 0.0 0.0 0.0 0.0 0.2 8.1 47.2 63.1 63.7 24.5 4.7 2.0 0.5 0.5 0.6 0.2 0.7 0.7 1.2 2.7 2.7 8.4 8.9 16.3 14.7 9.9 11.8 11.2 8.1 2.9 2.3 1.7 2.3 3.0 3.0 4.3 2.9 2.3 2.1 1.6 1.6 2.1 1.9 1.5 2.0 1.4 1.0 0.5 0.6 0.6 0.8 0.4
0.1 0.0 0.0 0.0 0.0 4.8 43.5 56.3 37.5 48.0 23.2 6.3 1.4 1.1 0.5 0.4 0.5 0.4 0.2 0.1 0.2 1.5 3.9 12.7 18.4 13.5 7.6 6.7 7.2 3.3 2.6 3.0 1.8 0.7 1.4 2.4 3.3 3.9 3.7 3.0 2.0 1.3 1.7 2.3 1.9 3.1 3.0 1.8 1.9 1.3 1.4 1.6 2.3 1.3
0.0 0.0 0.0 0.0 0.0 33.9 62.3 56.3 28.4 18.2 11.7 5.1 1.8 2.0 2.0 1.2 0.8 0.5 0.2 0.8 3.3 7.8 17.2 18.3 9.3 8.2 8.2 5.3 5.0 4.9 3.7 2.6 2.0 0.8 0.1 1.1 1.4 2.2 2.4 2.5 2.4 1.8 2.1 2.4 2.6 3.6 3.9 2.7 2.0 1.6 2.4 3.7 5.2 1.9
0.0 0.0 0.0 0.6 22.3 35.3 44.8 33.1 26.7 14.6 9.5 5.3 6.2 3.2 4.9 2.8 3.1 3.4 4.8 4.2 12.7 20.4 15.4 6.2 7.7 5.5 5.2 3.7 2.2 2.3 1.8 2.0 2.9 3.8 4.6 3.0 1.9 0.8 1.0 1.7 2.3 2.2 2.8 2.4 2.8 2.3 2.1 2.4 1.7 2.1 3.3 2.4 2.1 2.9
1.2 0.0 20.1 21.3 63.2 60.8 51.2 21.4 13.2 10.5 6.6 9.3 7.4 6.6 8.6 8.5 8.2 8.0 6.2 15.9 20.7 14.7 10.3 9.0 5.9 4.4 2.3 1.6 1.6 1.5 1.9 1.1 0.6 0.8 0.8 2.3 0.7 0.2 0.2 0.2 1.1 1.8 2.3 2.6 3.1 3.6 2.1 1.9 3.1 5.2 3.5 2.4 2.6 1.7
0.2 2.6 38.6 44.2 56.4 52.3 39.7 15.2 15.5 13.1 12.7 14.2 9.8 9.9 12.4 9.7 9.8 8.3 15.3 11.3 12.7 11.3 8.4 6.4 4.9 2.7 2.9 0.6 0.9 0.5 0.9 1.9 1.2 1.1 1.0 1.0 1.0 1.1 0.9 0.3 0.6 2.1 2.1 1.5 2.0 3.7 2.7 2.4 2.1 5.4 3.6 0.6 1.5 1.8
1.3 47.6 62.7 61.2 45.8 39.2 26.2 24.7 14.7 10.1 11.8 12.4 12.6 12.9 9.7 9.2 12.4 14.7 11.5 9.2 12.0 9.1 6.4 5.6 4.4 1.7 0.9 0.4 1.4 1.5 1.6 2.2 1.6 0.9 1.3 2.7 1.6 1.0 1.5 1.7 1.3 1.3 2.2 2.8 3.5 3.6 2.0 2.8 3.1 2.0 1.7 2.6 2.3 2.5
76.5 76.6 49.2 50.7 33.3 20.4 12.2 9.9 7.4 6.2 7.7 7.7 8.8 10.6 10.6 11.0 15.1 12.9 7.9 8.0 7.3 8.4 8.0 5.4 5.1 5.5 6.4 2.8 1.3 2.5 2.2 4.7 5.9 3.0 1.4 2.3 2.0 1.2 1.4 0.7 0.4 0.7 1.1 4.5 2.9 3.0 3.0 4.1 3.9 3.7 3.3 6.2 7.6 10.4
76.0 37.9 28.5 16.5 9.1 3.1 3.8 5.0 5.0 4.9 5.4 8.8 9.1 7.9 7.6 10.2 12.5 11.9 8.9 9.2 8.8 11.0 13.1 10.7 9.8 5.6 4.4 7.0 7.4 5.1 6.5 7.2 8.6 5.9 2.5 3.1 5.8 9.1 6.3 2.8 1.6 0.7 0.6 3.5 9.5 9.8 4.4 4.6 6.5 6.7 6.3 5.6 8.2 11.0
42.3 19.1 8.1 2.6 1.2 0.8 1.7 3.4 4.0 5.0 6.4 7.4 5.6 6.3 7.2 14.8 10.5 6.8 6.8 9.4 13.8 14.2 14.5 14.1 11.8 11.1 9.4 7.5 6.4 7.5 8.5 9.5 11.5 10.9 6.5 6.9 5.6 5.9 9.1 14.9 12.6 3.1 8.8 9.7 9.0 12.5 15.3 10.3 8.7 7.8 9.1 6.1 7.0 10.2
9.5 3.6 4.1 2.6 1.2 1.4 2.4 3.5 3.7 5.0 4.5 2.9 2.9 4.6 4.3 5.0 5.8 6.1 8.6 9.2 12.2 12.7 12.1 11.4 11.0 10.6 11.3 8.8 8.9 9.8 8.7 8.4 7.5 7.2 6.7 6.6 6.5 5.7 6.1 9.4 11.5 14.4 18.9 17.7 21.9 19.5 14.4 15.0 13.8 11.5 9.9 9.1 7.0 6.5
4.5 3.4 1.9 2.6 1.7 2.6 4.5 4.2 3.6 3.3 2.4 2.4 2.8 3.5 4.6 4.1 6.1 6.6 7.1 8.3 9.7 10.6 10.5 9.5 7.9 7.7 8.3 10.0 9.9 9.8 9.7 11.0 11.2 8.3 5.5 5.7 5.9 6.1 6.7 11.1 12.4 11.7 11.7 10.9 7.0 12.4 18.2 25.3 25.7 23.5 15.4 11.6 9.3 9.0
4.9 3.9 3.1 2.9 2.2 2.6 2.6 2.2 3.2 3.1 2.7 3.7 3.2 4.0 4.3 5.9 8.6 7.6 7.7 8.8 9.4 10.2 10.2 10.7 10.6 9.3 9.8 9.5 9.0 9.0 8.6 9.8 15.4 23.4 25.4 12.7 11.3 10.1 12.0 14.2 13.9 11.1 10.4 10.9 10.5 7.6 6.6 8.5 7.5 7.9 10.6 10.9 12.4 13.5
3.9 3.1 4.3 3.5 3.8 3.9 4.1 4.5 4.3 5.0 4.4 4.7 4.2 4.4 5.8 7.6 9.6 8.1 7.3 8.3 8.3 7.4 8.8 11.2 9.5 10.2 11.6 10.9 12.2 12.8 8.2 7.7 8.9 12.9 17.3 22.0 17.5 16.5 17.2 19.0 15.9 14.8 14.4 14.2 13.1 10.3 10.2 10.4 10.1 10.5 11.4 11.1 10.6 11.7
4.6 5.6 5.2 4.4 5.1 5.5 5.9 5.6 5.4 6.9 8.1 7.9 7.2 7.0 8.5 8.5 10.5 9.4 6.8 7.1 7.5 7.7 7.8 9.3 10.2 9.9 11.0 12.8 12.5 13.6 16.3 16.3 14.3 15.7 18.8 19.6 23.2 23.4 26.0 17.8 16.1 16.6 15.7 15.1 14.4 15.0 14.4 14.4 15.4 14.9 14.8 13.5 13.1 12.7
9.0 8.2 7.9 7.3 5.2 7.5 5.2 6.7 7.4 7.9 6.6 6.8 7.4 6.9 7.3 7.2 7.8 5.2 5.4 6.6 8.8 10.4 10.9 10.6 10.4 11.8 10.5 11.8 11.4 11.1 12.0 13.9 15.0 17.0 19.2 20.0 22.0 26.5 25.2 15.2 15.6 15.8 16.3 15.9 16.5 16.6 17.0 16.9 16.4 16.4 15.9 15.8 14.8 13.9